www.pogodaiklimat.ru

Погода и климат >> Архив погоды >> Россия >> Дагестан >> Касумкент


ПОГОДА в Касумкенте

  • Прогноз погоды в Касумкенте
  • Монитор погоды в Касумкенте

АРХИВ ПОГОДЫ в Касумкенте

Время (UTC), дата Ветер
(напр.,м/с)
 
Видим.   Явления Облачность Т
(С)
Тd
(С)
f
(%)
Тe
(С)
Тes
(С)
Комфортность P
(гПа)
Po
(гПа)
Тmin
(С)
Tmax
(С)
R
(мм)
R24
(мм)
S
(см)
06 9.01 З 1 50 км 8/8 600 м
[Sc diur, vesp]
+2.9 -2.5 68 +2 +2 1006.8 949.5
09 9.01 штиль 0 20 км 10/10 600 м
[Sc diur, vesp]
+3.7 -0.9 72 +3 +3 1004.0 947.1
12 9.01 штиль 0 20 км 10/10 600 м
[Sc diur, vesp]
+7.1 -1.0 56 +7 +7 1003.9 947.7
15 9.01 З 1 10 км 10/10 600 м
[Cu hum]
+3.7 -0.1 76 +2 +2 1009.8 952.6 +7.3
18 9.01 Ю 1 10 км в посл. час дождь 10/10 600 м
[Cb calv]
+3.3 +1.7 89 +2 +2 1013.3 955.7
21 9.01 В 2 4000 м слаб. дождь 10/10 300 м
[Frnb]
+0.6 -0.1 95 -3 -3 1016.0 957.8
00 10.01 В 1 4000 м слаб. снег 10/10 300 м
[Frnb Ns]
-0.8 -1.1 98 -3 -3 1020.6 961.8
03 10.01 ЮВ 1 10 км {снег} 10/10 600 м
[Cu hum]
-1.4 -1.6 99 -4 -4 1022.7 963.7 -1.4 4
06 10.01 СВ 1 500 м туман ?/? -1.2 -1.4 99 -4 -4 1025.6 966.5 -1.6
09 10.01 В 1 50 км {туман} ясно +2.1 +1.7 97 0 +6 1024.2 965.9
12 10.01 СВ 1 20 км 10/10 600 м
[Cb calv]
+0.6 -0.9 90 -1 -1 1025.9 967.1
15 10.01 штиль 0 10 км 10/10 600 м
[Cb calv]
-0.9 -1.5 96 -2 -2 1026.8 967.6 +2.9
18 10.01 ЮВ 1 500 м туман ?/? -2.1 -2.3 99 -5 -5 1026.5 967.1
21 10.01 штиль 0 500 м туман ?/? -3.3 -3.6 98 -5 -5 1025.7 966.1
00 11.01 штиль 0 500 м туман ?/? -4.2 -4.5 98 -5 -5 1025.1 965.3
03 11.01 штиль 0 500 м туман ?/? -5.0 -5.5 96 -6 -6 1024.6 964.6 -5.1
06 11.01 штиль 0 20 км 10/10
[Sc diur, vesp]
-3.4 -3.7 98 -5 -5 1024.4 964.8 -5.9
09 11.01 ЮВ 2 20 км 10/0
[Ac trans]
+4.4 -1.5 65 +2 +4 1020.5 962.7
12 11.01 ЮВ 2 50 км 8/8 600 м
[Sc diur, vesp]
+5.5 +0.8 72 +3 +3 1019.0 961.6
15 11.01 З 1 10 км ясно +1.7 -1.8 78 0 0 1018.9 960.7 +7.0
18 11.01 З 2 10 км ясно +0.1 -4.5 71 -3 -3 1018.1 959.6
21 11.01 З 2 10 км 10/10 600 м
[Cu hum]
+2.8 -6.5 50 0 0 1015.3 957.5
00 12.01 З 3 10 км 10/10 600 м
[Cu hum]
+3.9 -7.1 44 +1 +1 1013.0 955.5
03 12.01 З 3 10 км 10/10 600 м
[Cu med, cong]
+4.3 -6.9 44 +1 +1 1010.4 953.2 -0.9
06 12.01 З 1 20 км 10/10 600 м
[Cu med, cong]
+3.7 -5.6 51 +3 +3 1010.2 952.9
09 12.01 СВ 1 20 км 6/4 600 м
[Sc Ac cast Ci fib]
+14.2 -8.7 20 +15 +18 1006.0 950.9
12 12.01 В 1 20 км 5/5 600 м
[Sc Ac lent Ci sp]
+9.5 +0.7 54 +9 +10 1007.5 951.5
15 12.01 З 1 10 км {туман} ясно -0.8 -1.1 98 -3 -3 1012.7 954.4 +14.3
18 12.01 З 2 10 км ясно -1.2 -1.5 98 -5 -5 1015.0 966.4
21 12.01 З 1 10 км ясно -0.4 -3.6 79 -2 -2 1014.6 956.2
00 13.01 З 2 10 км ясно -0.3 -4.5 73 -4 -4 1013.4 955.1
03 13.01 З 1 10 км ясно -0.2 -5.1 70 -2 -2 1011.4 953.2 -1.6
06 13.01 штиль 0 50 км 8/3 600 м
[Cu hum Ci fib]
+4.1 -3.6 57 +4 +5 1008.8 951.6
09 13.01 СВ 2 50 км ясно +6.6 -1.1 58 +5 +9 1004.5 948.1
12 13.01 СВ 2 50 км 8/3 300 м
[Cb calv Ac trans Ci fib]
+6.3 +1.7 72 +4 +5 1003.2 946.9
15 13.01 СВ 2 10 км 10/10 600 м
[Cb calv]
+2.9 +1.8 92 -0 -0 1007.1 949.8 +8.0
18 13.01 С 1 4000 м слаб. дождь 10/10 300 м
[Frnb]
+2.3 +1.8 96 0 0 1008.5 951.1
21 13.01 С 1 10 км {дождь} 10/10 600 м
[Cu hum]
+1.8 +1.3 96 -0 -0 1009.1 951.5
00 14.01 ЮВ 1 10 км 10/10 600 м
[Cu hum]
+1.2 +0.8 97 -1 -1 1009.4 951.6
03 14.01 ЮВ 1 н/о н/о +0.9 +0.5 97 -1 -1 1009.9 952.1 +0.9
06 14.01 В 1 500 м туман ?/? +0.1 -0.2 98 -2 -2 1011.0 952.9 -0.1
09 14.01 В 1 20 км {туман} 10/0
[]
+1.6 +0.9 95 -0 +2 1008.9 951.3
12 14.01 В 2 20 км 10/10 600 м
[Cb calv]
+2.2 -0.1 85 -1 -1 1009.3 951.8
15 14.01 ЮВ 2 10 км ясно +0.8 +0.1 95 -3 -3 1010.1 952.3 +2.3
18 14.01 В 1 10 км ясно +1.0 +0.4 96 -1 -1 1011.1 953.2
21 14.01 Ю 1 10 км ясно +0.8 -1.2 86 -1 -1 1010.4 952.5
00 15.01 З 1 10 км ясно -0.5 -2.4 87 -3 -3 1010.2 952.1
03 15.01 З 1 10 км ясно -3.1 -4.4 91 -5 -5 1011.0 952.3 -3.3
06 15.01 СЗ 1 50 км ясно -0.1 -3.3 79 -2 0 1010.9 952.8 -3.3
09 15.01 ЮВ 1 20 км 10/0
[Ac As]
+5.4 -1.1 63 +5 +6 1008.5 951.7
12 15.01 ЮВ 2 20 км 10/0
[As trans]
+8.0 +0.5 59 +6 +7 1007.1 950.9
15 15.01 З 1 10 км ясно +2.6 -0.5 80 +1 +1 1009.1 951.6 +8.4
18 15.01 З 1 10 км 10/0
[As trans]
+3.2 -3.4 62 +2 +2 1007.8 950.6
21 15.01 Ю 1 10 км 10/0
[As trans]
+4.0 -4.3 55 +3 +3 1004.6 947.7
00 16.01 ЮЗ 2
{14}
н/о н/о +15.3 -7.8 20 +15 +15 999.5 945.0

 

Местоположение метеостанции Касумкент (Дагестан, Россия): широта 41.67 долгота 48.15 высота над уровнем моря 477 м.

В архиве по умолчанию представлена погода в Касумкенте за последнюю неделю. Архивные данные за месяц целиком и за предыдущие месяцы, начиная с января 2011 года, Вы можете получить, выбрав интересующий диапазон дат из раскрывающегося списка и нажав кнопку "Ввод!".


*Определитесь, кто Вы:
робот инопланетянин человек

Внимание! Время в таблицах - всемирное. Для получения местного времени необходимо прибавить поправку, которая равна 3 ч.

Смотрите также архив погоды в соседних городах и на ближайших метеорологических станциях:

Погода в Ахты (Дагестан, Россия) (40 км)
Погода в Губе (Азербайджан) (45 км)
Погода в Дербенте (Дагестан, Россия) (46 км)
Погода в Габале (Азербайджан) (80 км)
Погода в Сергокале (Дагестан, Россия) (95 км)
Погода в Шеках (Азербайджан) (96 км)
Погода в Изберге (Дагестан, Россия) (98 км)
Погода в Кумухе (Дагестан, Россия) (99 км)
Погода в Геокчае (Азербайджан) (118 км)
Погода в Куппе (Дагестан, Россия) (121 км)

Пояснения к столбцам:

Ветер - указаны скорость ветра в м/с - средняя за 10 мин, порывы в срок и между сроками (в фигурных скобках) и направление, откуда дует ветер: С - северный, СВ - северо-восточный, В - восточный, ЮВ - юго-восточный, Ю - южный, ЮЗ - юго-западный, З - западный, СЗ - северо-западный.
Видимость - горизонтальная дальность видимости в метрах или километрах. При видимости от 1 до 10 км при отсутствии осадков обычно наблюдается дымка, при ухудшении видимости до 1 км и менее - туман. В сухую погоду видимость может ухудшаться дымом, пылью или мглою.
Явления - указаны атмосферные явления, наблюдавшиеся в срок или в последний час перед сроком; фигурными скобками обозначены явления, наблюдавшиеся между сроками (за 1-3 часа до срока); квадратными скобками обозначены град или гололедные отложения с указанием их диаметра в мм.
Облачность - указаны через наклонную черту общая и нижняя облачность в баллах и высота нижней границы облаков в метрах; квадратными скобками обозначены формы облаков: Ci - перистые, Cs - перисто-слоистые, Cc - перисто-кучевые, Ac - высококучевые, As - высокослоистые, Sc - слоисто-кучевые, Ns - слоисто-дождевые, Cu - кучевые, Cb - кучево-дождевые. Подробнее классификацию облаков см. в Атласе облаков (PDF).
T - Температура воздуха - температура, измеренная на высоте 2 м над землей.
Td - Температура точки росы - температура, при понижении до которой содержащийся в воздухе водяной пар достигнет насыщения.
f - Относительная влажность воздуха - влажноcть воздуха, измеренная на высоте 2 м над землей.
Te - Эффективная температура - температура, которую ощущает одетый по сезону человек в тени. Характеристика душности погоды. При расчете учитывается влияние влажности воздуха и скорости ветра на теплоощущения человека.
Tes - Эффективная температура на солнце - температура, которую ощущает человек, с поправкой на солнечный нагрев. Характеристика знойности погоды. Зависит от высоты солнца над горизонтом, облачности и скорости ветра. Ночью, в пасмурную погоду, а также при ветре 12 м/с и более поправка равна нулю.
P - Атмосферное давление - приведенное к уровню моря атмосферное давление.
Po - Атмосферное давление - измеренное на уровне метеостанции атмосферное давление.
Tmin - Минимальная температура - минимум температуры воздуха на высоте 2 м над землей.
Tmax - Максимальная температура - максимум температуры воздуха на высоте 2 м над землей.
R - Количество осадков - Количество выпавших осадков за период времени, мм. При наведении курсора мыши на число - период времени, за который выпало указанное количество осадков.
R24 - Количество осадков - Количество выпавших осадков за 24 часа, мм.
S - Снежный покров - Высота снежного покрова, см. При наведении курсора мыши на число - состояние снежного покрова и степень покрытия местности в баллах.